Time,TemperatureF,DewpointF,PressureIn,WindDirection,WindDirectionDegrees,WindSpeedMPH,WindSpeedGustMPH,Humidity,HourlyPrecipIn,Conditions,Clouds,dailyrainin,SoftwareType,DateUTC
2013-08-20 00:01:00,79.3,63.7,29.95,NNW,342,0.0,0.0,59,0.00,,---,0.00,VWS V14.01,2013-08-20 05:01:00,
2013-08-20 00:06:00,79.4,64.3,29.95,South,170,3.0,6.0,60,0.00,,---,0.00,VWS V14.01,2013-08-20 05:06:00,
2013-08-20 00:11:00,79.4,63.8,29.95,ESE,105,4.0,6.0,59,0.00,,---,0.00,VWS V14.01,2013-08-20 05:11:00,
2013-08-20 00:16:00,79.3,63.7,29.95,ESE,114,4.0,6.0,59,0.00,,---,0.00,VWS V14.01,2013-08-20 05:16:00,
2013-08-20 00:21:00,79.2,64.1,29.95,East,98,5.0,6.0,60,0.00,,---,0.00,VWS V14.01,2013-08-20 05:21:00,
2013-08-20 00:26:00,79.1,64.5,29.95,East,85,4.0,6.0,61,0.00,,---,0.00,VWS V14.01,2013-08-20 05:26:00,
2013-08-20 00:31:00,79.1,64.0,29.95,SSE,154,3.0,6.0,60,0.00,,---,0.00,VWS V14.01,2013-08-20 05:31:00,
2013-08-20 00:36:00,79.2,65.1,29.95,West,277,4.0,6.0,62,0.00,,---,0.00,VWS V14.01,2013-08-20 05:36:00,
2013-08-20 00:41:00,79.1,64.0,29.95,ENE,67,6.0,7.0,60,0.00,,---,0.00,VWS V14.01,2013-08-20 05:41:00,
2013-08-20 00:46:00,79.0,64.4,29.95,ENE,57,3.0,7.0,61,0.00,,---,0.00,VWS V14.01,2013-08-20 05:46:00,
2013-08-20 00:51:00,78.9,64.8,29.95,ENE,72,5.0,7.0,62,0.00,,---,0.00,VWS V14.01,2013-08-20 05:51:00,
2013-08-20 00:56:00,78.8,64.7,29.95,East,85,3.0,7.0,62,0.00,,---,0.00,VWS V14.01,2013-08-20 05:56:00,
2013-08-20 01:01:00,78.6,64.5,29.95,WNW,284,2.0,7.0,62,0.00,,---,0.00,VWS V14.01,2013-08-20 06:01:00,
2013-08-20 01:06:00,78.5,64.0,29.95,ENE,74,1.0,6.0,61,0.00,,---,0.00,VWS V14.01,2013-08-20 06:06:00,
2013-08-20 01:11:00,78.4,64.3,29.95,NE,46,3.0,7.0,62,0.00,,---,0.00,VWS V14.01,2013-08-20 06:11:00,
2013-08-20 01:16:00,78.2,64.6,29.95,NE,39,4.0,7.0,63,0.00,,---,0.00,VWS V14.01,2013-08-20 06:16:00,
2013-08-20 01:21:00,78.1,64.5,29.95,North,4,0.0,7.0,63,0.00,,---,0.00,VWS V14.01,2013-08-20 06:21:00,
2013-08-20 01:26:00,78.1,64.0,29.95,East,79,3.0,7.0,62,0.00,,---,0.00,VWS V14.01,2013-08-20 06:26:00,
2013-08-20 01:31:00,78.0,64.4,29.95,ENE,73,3.0,7.0,63,0.00,,---,0.00,VWS V14.01,2013-08-20 06:31:00,
2013-08-20 01:36:00,77.8,64.2,29.95,ENE,69,2.0,5.0,63,0.00,,---,0.00,VWS V14.01,2013-08-20 06:36:00,
2013-08-20 01:41:00,77.5,64.4,29.95,NE,54,2.0,5.0,64,0.00,,---,0.00,VWS V14.01,2013-08-20 06:41:00,
2013-08-20 01:46:00,77.4,64.3,29.95,East,89,2.0,5.0,64,0.00,,---,0.00,VWS V14.01,2013-08-20 06:46:00,
2013-08-20 01:51:00,77.2,64.5,29.95,East,89,3.0,5.0,65,0.00,,---,0.00,VWS V14.01,2013-08-20 06:51:00,
2013-08-20 01:56:00,77.1,64.9,29.95,ENE,68,6.0,6.0,66,0.00,,---,0.00,VWS V14.01,2013-08-20 06:56:00,
2013-08-20 02:01:00,77.0,64.3,29.95,NW,316,2.0,8.0,65,0.00,,---,0.00,VWS V14.01,2013-08-20 07:01:00,
2013-08-20 02:06:00,76.9,64.2,29.95,NE,50,3.0,7.0,65,0.00,,---,0.00,VWS V14.01,2013-08-20 07:06:00,
2013-08-20 02:11:00,76.8,64.6,29.95,WNW,283,2.0,7.0,66,0.00,,---,0.00,VWS V14.01,2013-08-20 07:11:00,
2013-08-20 02:16:00,76.8,64.2,29.94,SE,124,4.0,7.0,65,0.00,,---,0.00,VWS V14.01,2013-08-20 07:16:00,
2013-08-20 02:21:00,76.8,64.6,29.94,ESE,114,6.0,7.0,66,0.00,,---,0.00,VWS V14.01,2013-08-20 07:21:00,
2013-08-20 02:26:00,76.8,64.6,29.94,NE,43,4.0,7.0,66,0.00,,---,0.00,VWS V14.01,2013-08-20 07:26:00,
2013-08-20 02:31:00,77.0,65.6,29.95,ENE,78,8.0,8.0,68,0.00,,---,0.00,VWS V14.01,2013-08-20 07:31:00,
2013-08-20 02:36:00,77.0,64.8,29.95,East,91,3.0,8.0,66,0.00,,---,0.00,VWS V14.01,2013-08-20 07:36:00,
2013-08-20 02:41:00,77.0,64.8,29.95,East,85,3.0,8.0,66,0.00,,---,0.00,VWS V14.01,2013-08-20 07:41:00,
2013-08-20 02:46:00,76.9,64.2,29.94,East,81,2.0,8.0,65,0.00,,---,0.00,VWS V14.01,2013-08-20 07:46:00,
2013-08-20 02:51:00,76.7,64.9,29.94,East,84,5.0,8.0,67,0.00,,---,0.00,VWS V14.01,2013-08-20 07:51:00,
2013-08-20 02:56:00,76.5,65.2,29.94,SE,127,1.0,8.0,68,0.00,,---,0.00,VWS V14.01,2013-08-20 07:56:00,
2013-08-20 03:01:00,76.3,65.0,29.94,SE,128,2.0,8.0,68,0.00,,---,0.00,VWS V14.01,2013-08-20 08:01:00,
2013-08-20 03:06:00,76.1,65.2,29.94,ENE,75,2.0,4.0,69,0.00,,---,0.00,VWS V14.01,2013-08-20 08:06:00,
2013-08-20 03:11:00,75.9,65.0,29.94,ESE,114,3.0,4.0,69,0.00,,---,0.00,VWS V14.01,2013-08-20 08:11:00,
2013-08-20 03:16:00,75.9,65.0,29.95,ESE,105,3.0,5.0,69,0.00,,---,0.00,VWS V14.01,2013-08-20 08:16:00,
2013-08-20 03:21:00,75.9,64.6,29.95,ESE,105,4.0,6.0,68,0.00,,---,0.00,VWS V14.01,2013-08-20 08:21:00,
2013-08-20 03:26:00,75.9,65.0,29.95,East,100,3.0,6.0,69,0.00,,---,0.00,VWS V14.01,2013-08-20 08:26:00,
2013-08-20 03:31:00,75.8,64.9,29.94,NE,42,1.0,6.0,69,0.00,,---,0.00,VWS V14.01,2013-08-20 08:31:00,
2013-08-20 03:36:00,75.7,64.8,29.95,East,83,3.0,5.0,69,0.00,,---,0.00,VWS V14.01,2013-08-20 08:36:00,
2013-08-20 03:41:00,75.7,64.8,29.95,East,90,2.0,5.0,69,0.00,,---,0.00,VWS V14.01,2013-08-20 08:41:00,
2013-08-20 03:46:00,75.5,65.0,29.95,NE,53,1.0,5.0,70,0.00,,---,0.00,VWS V14.01,2013-08-20 08:46:00,
2013-08-20 03:51:00,75.4,64.5,29.95,East,98,0.0,5.0,69,0.00,,---,0.00,VWS V14.01,2013-08-20 08:51:00,
2013-08-20 03:56:00,75.3,64.8,29.95,ESE,108,1.0,5.0,70,0.00,,---,0.00,VWS V14.01,2013-08-20 08:56:00,
2013-08-20 04:01:00,75.2,64.8,29.95,ESE,110,0.0,5.0,70,0.00,,---,0.00,VWS V14.01,2013-08-20 09:01:00,
2013-08-20 04:06:00,75.1,64.7,29.95,SE,127,1.0,2.0,70,0.00,,---,0.00,VWS V14.01,2013-08-20 09:06:00,
2013-08-20 04:11:00,75.0,64.6,29.95,East,100,2.0,4.0,70,0.00,,---,0.00,VWS V14.01,2013-08-20 09:11:00,
2013-08-20 04:16:00,75.0,64.6,29.95,ESE,121,0.0,4.0,70,0.00,,---,0.00,VWS V14.01,2013-08-20 09:16:00,
2013-08-20 04:21:00,74.9,64.5,29.95,ESE,108,1.0,4.0,70,0.00,,---,0.00,VWS V14.01,2013-08-20 09:21:00,
2013-08-20 04:26:00,74.9,64.9,29.95,East,93,0.0,4.0,71,0.00,,---,0.00,VWS V14.01,2013-08-20 09:26:00,
2013-08-20 04:31:00,74.9,64.5,29.96,ESE,111,0.0,4.0,70,0.00,,---,0.00,VWS V14.01,2013-08-20 09:31:00,
2013-08-20 04:36:00,74.8,64.8,29.95,ESE,104,1.0,2.0,71,0.00,,---,0.00,VWS V14.01,2013-08-20 09:36:00,
2013-08-20 04:41:00,74.8,64.8,29.96,SE,129,1.0,3.0,71,0.00,,---,0.00,VWS V14.01,2013-08-20 09:41:00,
2013-08-20 04:46:00,74.9,64.9,29.96,East,96,0.0,4.0,71,0.00,,---,0.00,VWS V14.01,2013-08-20 09:46:00,
2013-08-20 04:51:00,75.0,65.0,29.95,East,80,4.0,5.0,71,0.00,,---,0.00,VWS V14.01,2013-08-20 09:51:00,
2013-08-20 04:56:00,75.1,65.1,29.95,East,85,1.0,5.0,71,0.00,,---,0.00,VWS V14.01,2013-08-20 09:56:00,
2013-08-20 05:01:00,75.1,65.5,29.96,East,96,2.0,5.0,72,0.00,,---,0.00,VWS V14.01,2013-08-20 10:01:00,
2013-08-20 05:06:00,75.0,65.4,29.96,East,88,3.0,4.0,72,0.00,,---,0.00,VWS V14.01,2013-08-20 10:06:00,
2013-08-20 05:11:00,75.0,65.4,29.96,ENE,72,3.0,4.0,72,0.00,,---,0.00,VWS V14.01,2013-08-20 10:11:00,
2013-08-20 05:16:00,74.9,65.3,29.96,East,98,4.0,6.0,72,0.00,,---,0.00,VWS V14.01,2013-08-20 10:16:00,
2013-08-20 05:21:00,75.0,65.8,29.96,East,91,5.0,6.0,73,0.00,,---,0.00,VWS V14.01,2013-08-20 10:21:00,
2013-08-20 05:26:00,75.0,65.8,29.96,ESE,108,3.0,6.0,73,0.00,,---,0.00,VWS V14.01,2013-08-20 10:26:00,
2013-08-20 05:31:00,75.0,65.8,29.96,ESE,117,5.0,6.0,73,0.00,,---,0.00,VWS V14.01,2013-08-20 10:31:00,
2013-08-20 05:36:00,75.0,65.8,29.96,ESE,111,2.0,5.0,73,0.00,,---,0.00,VWS V14.01,2013-08-20 10:36:00,
2013-08-20 05:41:00,74.9,66.4,29.97,East,86,0.0,5.0,75,0.00,,---,0.00,VWS V14.01,2013-08-20 10:41:00,
2013-08-20 05:46:00,74.6,66.2,29.97,East,91,1.0,5.0,75,0.00,,---,0.00,VWS V14.01,2013-08-20 10:46:00,
2013-08-20 05:51:00,74.3,66.2,29.97,East,82,1.0,5.0,76,0.00,,---,0.00,VWS V14.01,2013-08-20 10:51:00,
2013-08-20 05:56:00,74.0,66.0,29.97,East,82,1.0,5.0,76,0.00,,---,0.00,VWS V14.01,2013-08-20 10:56:00,
2013-08-20 06:01:00,73.7,66.1,29.97,East,86,0.0,5.0,77,0.00,,---,0.00,VWS V14.01,2013-08-20 11:01:00,
2013-08-20 06:06:00,73.5,65.9,29.97,ESE,105,1.0,2.0,77,0.00,,---,0.00,VWS V14.01,2013-08-20 11:06:00,
2013-08-20 06:11:00,73.3,66.0,29.97,SE,127,0.0,2.0,78,0.00,,---,0.00,VWS V14.01,2013-08-20 11:11:00,
2013-08-20 06:16:00,73.1,65.8,29.97,SE,127,0.0,2.0,78,0.00,,---,0.00,VWS V14.01,2013-08-20 11:16:00,
2013-08-20 06:21:00,72.6,65.7,29.97,SE,127,0.0,2.0,79,0.00,,---,0.00,VWS V14.01,2013-08-20 11:21:00,
2013-08-20 06:26:00,72.1,65.6,29.97,SE,124,0.0,2.0,80,0.00,,---,0.00,VWS V14.01,2013-08-20 11:26:00,
2013-08-20 06:31:00,71.8,65.7,29.97,SE,128,0.0,2.0,81,0.00,,---,0.00,VWS V14.01,2013-08-20 11:31:00,
2013-08-20 06:36:00,71.7,65.6,29.98,SE,127,1.0,3.0,81,0.00,,---,0.00,VWS V14.01,2013-08-20 11:36:00,
2013-08-20 06:41:00,72.2,65.3,29.98,ESE,121,1.0,3.0,79,0.00,,---,0.00,VWS V14.01,2013-08-20 11:41:00,
2013-08-20 06:46:00,72.5,65.3,29.98,ESE,121,1.0,3.0,78,0.00,,---,0.00,VWS V14.01,2013-08-20 11:46:00,
2013-08-20 06:51:00,72.7,65.4,29.98,SE,124,1.0,3.0,78,0.00,,---,0.00,VWS V14.01,2013-08-20 11:51:00,
2013-08-20 06:56:00,72.7,65.8,29.98,SE,141,0.0,3.0,79,0.00,,---,0.00,VWS V14.01,2013-08-20 11:56:00,
2013-08-20 07:01:00,72.6,66.1,29.98,SE,141,0.0,3.0,80,0.00,,---,0.00,VWS V14.01,2013-08-20 12:01:00,
2013-08-20 07:06:00,72.3,66.5,29.98,SE,141,0.0,1.0,82,0.00,,---,0.00,VWS V14.01,2013-08-20 12:06:00,
2013-08-20 07:11:00,72.0,66.6,29.98,SE,141,0.0,1.0,83,0.00,,---,0.00,VWS V14.01,2013-08-20 12:11:00,
2013-08-20 07:16:00,71.8,66.4,29.99,SSE,153,0.0,1.0,83,0.00,,---,0.00,VWS V14.01,2013-08-20 12:16:00,
2013-08-20 07:21:00,71.8,66.7,29.99,SSE,153,0.0,1.0,84,0.00,,---,0.00,VWS V14.01,2013-08-20 12:21:00,
2013-08-20 07:26:00,71.7,66.6,29.99,SSE,162,2.0,2.0,84,0.00,,---,0.00,VWS V14.01,2013-08-20 12:26:00,
2013-08-20 07:31:00,71.8,66.4,29.99,SSE,156,0.0,2.0,83,0.00,,---,0.00,VWS V14.01,2013-08-20 12:31:00,
2013-08-20 07:36:00,72.1,66.3,29.99,SE,146,0.0,1.0,82,0.00,,---,0.00,VWS V14.01,2013-08-20 12:36:00,
2013-08-20 07:41:00,72.4,66.6,29.99,SSE,163,1.0,2.0,82,0.00,,---,0.00,VWS V14.01,2013-08-20 12:41:00,
2013-08-20 07:46:00,73.0,66.8,29.99,SSE,159,2.0,3.0,81,0.00,,---,0.00,VWS V14.01,2013-08-20 12:46:00,
2013-08-20 07:51:00,73.5,67.0,29.99,SSE,149,1.0,3.0,80,0.00,,---,0.00,VWS V14.01,2013-08-20 12:51:00,
2013-08-20 07:56:00,74.0,67.1,29.99,SSE,165,2.0,4.0,79,0.00,,---,0.00,VWS V14.01,2013-08-20 12:56:00,
2013-08-20 08:01:00,74.3,67.4,30.00,SE,133,1.0,4.0,79,0.00,,---,0.00,VWS V14.01,2013-08-20 13:01:00,
2013-08-20 08:06:00,74.7,68.1,30.00,SSE,163,3.0,4.0,80,0.00,,---,0.00,VWS V14.01,2013-08-20 13:06:00,
2013-08-20 08:11:00,75.1,67.8,30.00,South,169,2.0,4.0,78,0.00,,---,0.00,VWS V14.01,2013-08-20 13:11:00,
2013-08-20 08:16:00,75.7,68.0,30.00,SSE,167,2.0,4.0,77,0.00,,---,0.00,VWS V14.01,2013-08-20 13:16:00,
2013-08-20 08:21:00,76.4,67.9,30.00,SSE,157,1.0,4.0,75,0.00,,---,0.00,VWS V14.01,2013-08-20 13:21:00,
2013-08-20 08:26:00,76.8,67.9,30.00,SSE,160,1.0,4.0,74,0.00,,---,0.00,VWS V14.01,2013-08-20 13:26:00,
2013-08-20 08:31:00,77.5,68.6,30.00,SSE,162,0.0,4.0,74,0.00,,---,0.00,VWS V14.01,2013-08-20 13:31:00,
2013-08-20 08:36:00,78.3,68.9,30.00,SSE,167,0.0,4.0,73,0.00,,---,0.00,VWS V14.01,2013-08-20 13:36:00,
2013-08-20 08:41:00,79.0,68.8,30.00,South,186,2.0,5.0,71,0.00,,---,0.00,VWS V14.01,2013-08-20 13:41:00,
2013-08-20 08:46:00,79.7,69.1,30.00,South,181,1.0,5.0,70,0.00,,---,0.00,VWS V14.01,2013-08-20 13:46:00,
2013-08-20 08:51:00,80.2,69.5,30.00,South,189,2.0,5.0,70,0.00,,---,0.00,VWS V14.01,2013-08-20 13:51:00,
2013-08-20 08:56:00,80.7,69.2,30.01,South,191,2.0,5.0,68,0.00,,---,0.00,VWS V14.01,2013-08-20 13:56:00,
2013-08-20 09:01:00,81.6,69.2,30.01,SSE,157,0.0,5.0,66,0.00,,---,0.00,VWS V14.01,2013-08-20 14:01:00,
2013-08-20 09:30:00,83.9,69.0,30.01,SW,221,2.0,7.0,61,0.00,,---,0.00,VWS V14.01,2013-08-20 14:30:00,
2013-08-20 10:00:00,85.1,69.7,30.01,SSE,155,2.0,8.0,60,0.00,,---,0.00,VWS V14.01,2013-08-20 15:00:00,
2013-08-20 10:30:00,87.4,69.8,30.01,SW,215,2.0,7.0,56,0.00,,---,0.00,VWS V14.01,2013-08-20 15:30:00,
2013-08-20 11:00:00,88.6,68.7,30.01,SSW,208,2.0,8.0,52,0.00,,---,0.00,VWS V14.01,2013-08-20 16:00:00,
2013-08-20 11:30:00,88.3,70.6,30.01,ESE,103,3.0,6.0,56,0.00,,---,0.00,VWS V14.01,2013-08-20 16:30:00,
2013-08-20 12:46:00,93.3,69.4,29.99,ESE,111,3.0,4.0,46,0.00,,---,0.00,VWS V14.01,2013-08-20 17:46:00,
2013-08-20 12:51:00,92.3,67.9,29.99,ESE,111,2.0,4.0,45,0.00,,---,0.00,VWS V14.01,2013-08-20 17:51:00,
2013-08-20 12:56:00,91.7,66.1,29.99,East,89,3.0,4.0,43,0.00,,---,0.00,VWS V14.01,2013-08-20 17:56:00,
2013-08-20 13:01:00,91.6,66.0,29.99,SE,143,1.0,3.0,43,0.00,,---,0.00,VWS V14.01,2013-08-20 18:01:00,
2013-08-20 13:06:00,92.5,68.1,29.98,East,101,0.0,3.0,45,0.00,,---,0.00,VWS V14.01,2013-08-20 18:06:00,
2013-08-20 13:11:00,93.7,66.5,29.98,SSE,156,2.0,3.0,41,0.00,,---,0.00,VWS V14.01,2013-08-20 18:11:00,
2013-08-20 13:16:00,93.0,64.4,29.98,SE,124,2.0,3.0,39,0.00,,---,0.00,VWS V14.01,2013-08-20 18:16:00,
2013-08-20 13:21:00,92.6,64.1,29.98,ESE,106,2.0,4.0,39,0.00,,---,0.00,VWS V14.01,2013-08-20 18:21:00,
2013-08-20 13:26:00,93.0,64.4,29.98,ESE,111,3.0,4.0,39,0.00,,---,0.00,VWS V14.01,2013-08-20 18:26:00,
2013-08-20 13:31:00,93.1,64.5,29.98,East,86,2.0,2.0,39,0.00,,---,0.00,VWS V14.01,2013-08-20 18:31:00,
2013-08-20 13:36:00,93.3,63.9,29.98,ESE,108,2.0,4.0,38,0.00,,---,0.00,VWS V14.01,2013-08-20 18:36:00,
2013-08-20 13:41:00,93.1,63.8,29.98,SE,143,4.0,5.0,38,0.00,,---,0.00,VWS V14.01,2013-08-20 18:41:00,
2013-08-20 13:46:00,93.2,63.8,29.97,ESE,104,2.0,5.0,38,0.00,,---,0.00,VWS V14.01,2013-08-20 18:46:00,
2013-08-20 13:51:00,93.6,64.2,29.97,SE,132,3.0,5.0,38,0.00,,---,0.00,VWS V14.01,2013-08-20 18:51:00,
2013-08-20 13:56:00,93.4,64.0,29.97,SSE,162,5.0,7.0,38,0.00,,---,0.00,VWS V14.01,2013-08-20 18:56:00,
2013-08-20 14:01:00,93.9,64.5,29.97,East,79,2.0,3.0,38,0.00,,---,0.00,VWS V14.01,2013-08-20 19:01:00,
2013-08-20 14:06:00,94.1,63.9,29.97,ESE,118,3.0,6.0,37,0.00,,---,0.00,VWS V14.01,2013-08-20 19:06:00,
2013-08-20 14:11:00,94.0,64.6,29.97,SE,133,4.0,6.0,38,0.00,,---,0.00,VWS V14.01,2013-08-20 19:11:00,
2013-08-20 14:16:00,93.4,65.5,29.96,ESE,122,3.0,6.0,40,0.00,,---,0.00,VWS V14.01,2013-08-20 19:16:00,
2013-08-20 14:21:00,93.5,64.1,29.97,North,352,2.0,6.0,38,0.00,,---,0.00,VWS V14.01,2013-08-20 19:21:00,
2013-08-20 14:26:00,93.9,64.5,29.96,ESE,104,3.0,6.0,38,0.00,,---,0.00,VWS V14.01,2013-08-20 19:26:00,
2013-08-20 14:31:00,94.3,64.8,29.96,SSW,194,3.0,3.0,38,0.00,,---,0.00,VWS V14.01,2013-08-20 19:31:00,
2013-08-20 14:36:00,95.2,64.8,29.96,SSE,153,2.0,5.0,37,0.00,,---,0.00,VWS V14.01,2013-08-20 19:36:00,
2013-08-20 14:41:00,95.6,65.2,29.96,East,97,4.0,9.0,37,0.00,,---,0.00,VWS V14.01,2013-08-20 19:41:00,
2013-08-20 14:46:00,95.4,64.2,29.96,SSE,162,5.0,9.0,36,0.00,,---,0.00,VWS V14.01,2013-08-20 19:46:00,
2013-08-20 14:51:00,95.4,64.2,29.95,SW,224,3.0,9.0,36,0.00,,---,0.00,VWS V14.01,2013-08-20 19:51:00,
2013-08-20 14:56:00,95.7,64.5,29.95,ESE,110,3.0,9.0,36,0.00,,---,0.00,VWS V14.01,2013-08-20 19:56:00,
2013-08-20 15:01:00,96.1,64.8,29.95,SSE,162,5.0,6.0,36,0.00,,---,0.00,VWS V14.01,2013-08-20 20:01:00,
2013-08-20 15:06:00,95.9,64.7,29.95,ESE,115,5.0,6.0,36,0.00,,---,0.00,VWS V14.01,2013-08-20 20:06:00,
2013-08-20 15:11:00,95.1,64.0,29.95,SSE,163,6.0,8.0,36,0.00,,---,0.00,VWS V14.01,2013-08-20 20:11:00,
2013-08-20 15:16:00,94.9,64.6,29.94,SSW,197,4.0,9.0,37,0.00,,---,0.00,VWS V14.01,2013-08-20 20:16:00,
2013-08-20 15:21:00,94.9,63.8,29.94,SSW,205,4.0,9.0,36,0.00,,---,0.00,VWS V14.01,2013-08-20 20:21:00,
2013-08-20 15:26:00,94.6,64.3,29.94,ESE,115,2.0,9.0,37,0.00,,---,0.00,VWS V14.01,2013-08-20 20:26:00,
2013-08-20 15:31:00,94.4,65.7,29.94,East,83,4.0,4.0,39,0.00,,---,0.00,VWS V14.01,2013-08-20 20:31:00,
2013-08-20 15:36:00,94.3,65.6,29.94,ESE,111,3.0,5.0,39,0.00,,---,0.00,VWS V14.01,2013-08-20 20:36:00,
2013-08-20 15:41:00,94.4,65.7,29.94,ESE,111,2.0,5.0,39,0.00,,---,0.00,VWS V14.01,2013-08-20 20:41:00,
2013-08-20 15:46:00,95.0,65.4,29.94,SSE,160,2.0,5.0,38,0.00,,---,0.00,VWS V14.01,2013-08-20 20:46:00,
2013-08-20 15:51:00,95.7,66.1,29.94,SSE,167,2.0,5.0,38,0.00,,---,0.00,VWS V14.01,2013-08-20 20:51:00,
2013-08-20 15:56:00,95.8,64.6,29.94,East,98,5.0,6.0,36,0.00,,---,0.00,VWS V14.01,2013-08-20 20:56:00,
2013-08-20 16:01:00,95.2,64.8,29.94,SE,142,3.0,4.0,37,0.00,,---,0.00,VWS V14.01,2013-08-20 21:01:00,
2013-08-20 16:06:00,94.8,64.5,29.93,SE,133,3.0,6.0,37,0.00,,---,0.00,VWS V14.01,2013-08-20 21:06:00,
2013-08-20 16:11:00,94.5,66.5,29.93,SE,135,2.0,6.0,40,0.00,,---,0.00,VWS V14.01,2013-08-20 21:11:00,
2013-08-20 16:16:00,94.9,65.3,29.93,SE,124,3.0,6.0,38,0.00,,---,0.00,VWS V14.01,2013-08-20 21:16:00,
2013-08-20 16:21:00,94.5,65.7,29.93,ESE,118,3.0,6.0,39,0.00,,---,0.00,VWS V14.01,2013-08-20 21:21:00,
2013-08-20 16:26:00,94.5,65.7,29.93,South,184,3.0,6.0,39,0.00,,---,0.00,VWS V14.01,2013-08-20 21:26:00,
2013-08-20 16:31:00,95.5,65.9,29.93,ESE,114,3.0,3.0,38,0.00,,---,0.00,VWS V14.01,2013-08-20 21:31:00,
2013-08-20 16:36:00,95.7,65.3,29.93,SE,144,3.0,4.0,37,0.00,,---,0.00,VWS V14.01,2013-08-20 21:36:00,
2013-08-20 16:41:00,95.8,64.6,29.93,East,94,0.0,4.0,36,0.00,,---,0.00,VWS V14.01,2013-08-20 21:41:00,
2013-08-20 16:46:00,95.8,63.8,29.92,SE,124,1.0,6.0,35,0.00,,---,0.00,VWS V14.01,2013-08-20 21:46:00,
2013-08-20 16:51:00,95.9,64.7,29.92,ESE,118,2.0,6.0,36,0.00,,---,0.00,VWS V14.01,2013-08-20 21:51:00,
2013-08-20 16:56:00,95.4,65.0,29.92,SE,139,2.0,6.0,37,0.00,,---,0.00,VWS V14.01,2013-08-20 21:56:00,
2013-08-20 17:01:00,94.9,65.3,29.92,ESE,109,2.0,6.0,38,0.00,,---,0.00,VWS V14.01,2013-08-20 22:01:00,
2013-08-20 17:06:00,94.8,65.3,29.92,SE,124,3.0,5.0,38,0.00,,---,0.00,VWS V14.01,2013-08-20 22:06:00,
2013-08-20 17:11:00,94.9,64.6,29.92,South,180,3.0,5.0,37,0.00,,---,0.00,VWS V14.01,2013-08-20 22:11:00,
2013-08-20 17:16:00,95.2,64.1,29.92,SW,214,4.0,7.0,36,0.00,,---,0.00,VWS V14.01,2013-08-20 22:16:00,
2013-08-20 17:21:00,95.8,63.8,29.92,East,93,0.0,7.0,35,0.00,,---,0.00,VWS V14.01,2013-08-20 22:21:00,
2013-08-20 17:26:00,96.4,63.5,29.92,SSE,155,0.0,7.0,34,0.00,,---,0.00,VWS V14.01,2013-08-20 22:26:00,
2013-08-20 17:31:00,96.2,64.9,29.92,SSE,156,3.0,7.0,36,0.00,,---,0.00,VWS V14.01,2013-08-20 22:31:00,
2013-08-20 17:36:00,94.9,67.5,29.92,ESE,106,4.0,7.0,41,0.00,,---,0.00,VWS V14.01,2013-08-20 22:36:00,
2013-08-20 17:41:00,93.8,66.6,29.92,SE,136,4.0,7.0,41,0.00,,---,0.00,VWS V14.01,2013-08-20 22:41:00,
2013-08-20 17:46:00,93.0,66.5,29.92,ESE,121,3.0,7.0,42,0.00,,---,0.00,VWS V14.01,2013-08-20 22:46:00,
2013-08-20 17:51:00,92.6,66.2,29.92,ESE,121,2.0,7.0,42,0.00,,---,0.00,VWS V14.01,2013-08-20 22:51:00,
2013-08-20 17:56:00,92.4,68.0,29.92,SE,132,1.0,7.0,45,0.00,,---,0.00,VWS V14.01,2013-08-20 22:56:00,
2013-08-20 18:01:00,92.4,68.0,29.91,SE,125,2.0,7.0,45,0.00,,---,0.00,VWS V14.01,2013-08-20 23:01:00,
2013-08-20 18:06:00,92.4,67.3,29.91,ESE,111,2.0,3.0,44,0.00,,---,0.00,VWS V14.01,2013-08-20 23:06:00,
2013-08-20 18:11:00,92.4,67.3,29.92,ESE,116,1.0,3.0,44,0.00,,---,0.00,VWS V14.01,2013-08-20 23:11:00,
2013-08-20 18:16:00,92.5,68.1,29.92,ESE,118,1.0,3.0,45,0.00,,---,0.00,VWS V14.01,2013-08-20 23:16:00,
2013-08-20 18:21:00,92.5,68.1,29.91,SE,124,1.0,3.0,45,0.00,,---,0.00,VWS V14.01,2013-08-20 23:21:00,
2013-08-20 18:26:00,92.4,68.6,29.91,SE,124,1.0,3.0,46,0.00,,---,0.00,VWS V14.01,2013-08-20 23:26:00,
2013-08-20 18:31:00,92.2,68.4,29.91,ESE,122,1.0,3.0,46,0.00,,---,0.00,VWS V14.01,2013-08-20 23:31:00,
2013-08-20 18:36:00,92.0,66.3,29.91,ESE,118,0.0,1.0,43,0.00,,---,0.00,VWS V14.01,2013-08-20 23:36:00,
2013-08-20 18:41:00,91.9,67.5,29.91,ESE,115,1.0,1.0,45,0.00,,---,0.00,VWS V14.01,2013-08-20 23:41:00,
2013-08-20 18:46:00,91.7,65.4,29.91,ESE,113,1.0,1.0,42,0.00,,---,0.00,VWS V14.01,2013-08-20 23:46:00,
2013-08-20 18:51:00,91.7,65.4,29.91,ESE,113,0.0,1.0,42,0.00,,---,0.00,VWS V14.01,2013-08-20 23:51:00,
2013-08-20 18:56:00,92.0,65.6,29.91,ESE,113,0.0,1.0,42,0.00,,---,0.00,VWS V14.01,2013-08-20 23:56:00,
2013-08-20 19:01:00,92.1,66.4,29.91,ESE,113,0.0,1.0,43,0.00,,---,0.00,VWS V14.01,2013-08-21 00:01:00,
2013-08-20 19:06:00,92.0,67.0,29.91,ESE,113,0.0,0.0,44,0.00,,---,0.00,VWS V14.01,2013-08-21 00:06:00,
2013-08-20 19:11:00,91.7,66.7,29.91,ESE,113,0.0,0.0,44,0.00,,---,0.00,VWS V14.01,2013-08-21 00:11:00,
2013-08-20 19:16:00,91.6,65.3,29.91,ESE,111,0.0,1.0,42,0.00,,---,0.00,VWS V14.01,2013-08-21 00:16:00,
2013-08-20 19:21:00,91.6,66.0,29.91,ESE,111,0.0,1.0,43,0.00,,---,0.00,VWS V14.01,2013-08-21 00:21:00,
2013-08-20 19:26:00,91.6,66.0,29.91,ESE,112,0.0,1.0,43,0.00,,---,0.00,VWS V14.01,2013-08-21 00:26:00,
2013-08-20 19:31:00,91.6,66.0,29.91,ESE,112,0.0,1.0,43,0.00,,---,0.00,VWS V14.01,2013-08-21 00:31:00,
2013-08-20 19:36:00,91.5,65.9,29.91,ESE,111,0.0,0.0,43,0.00,,---,0.00,VWS V14.01,2013-08-21 00:36:00,
2013-08-20 19:41:00,91.2,66.3,29.91,ESE,112,0.0,0.0,44,0.00,,---,0.00,VWS V14.01,2013-08-21 00:41:00,
2013-08-20 19:46:00,90.9,66.6,29.91,ESE,112,0.0,0.0,45,0.00,,---,0.00,VWS V14.01,2013-08-21 00:46:00,
2013-08-20 19:51:00,90.3,66.7,29.92,ESE,111,0.0,0.0,46,0.00,,---,0.00,VWS V14.01,2013-08-21 00:51:00,
2013-08-20 19:56:00,89.7,66.8,29.92,ESE,111,0.0,0.0,47,0.00,,---,0.00,VWS V14.01,2013-08-21 00:56:00,
2013-08-20 20:01:00,89.2,67.0,29.92,ESE,112,0.0,0.0,48,0.00,,---,0.00,VWS V14.01,2013-08-21 01:01:00,
2013-08-20 20:06:00,88.7,67.1,29.92,ESE,111,0.0,0.0,49,0.00,,---,0.00,VWS V14.01,2013-08-21 01:06:00,
2013-08-20 20:11:00,88.1,67.1,29.92,NE,46,1.0,1.0,50,0.00,,---,0.00,VWS V14.01,2013-08-21 01:11:00,
2013-08-20 20:16:00,87.9,65.8,29.92,NE,56,0.0,1.0,48,0.00,,---,0.00,VWS V14.01,2013-08-21 01:16:00,
2013-08-20 20:19:00,87.7,68.5,29.92,NE,56,0.0,1.0,53,0.00,,---,0.00,VWS V14.01,2013-08-21 01:19:00,
2013-08-20 20:24:00,87.0,67.3,29.92,NE,56,0.0,1.0,52,0.00,,---,0.00,VWS V14.01,2013-08-21 01:24:00,
2013-08-20 20:29:00,86.4,67.8,29.92,NE,56,0.0,1.0,54,0.00,,---,0.00,VWS V14.01,2013-08-21 01:29:00,
2013-08-20 20:34:00,85.8,67.2,29.92,NE,55,0.0,0.0,54,0.00,,---,0.00,VWS V14.01,2013-08-21 01:34:00,
2013-08-20 20:39:00,85.4,66.9,29.92,ENE,60,0.0,0.0,54,0.00,,---,0.00,VWS V14.01,2013-08-21 01:39:00,
2013-08-20 20:44:00,85.1,67.1,29.92,SE,137,0.0,0.0,55,0.00,,---,0.00,VWS V14.01,2013-08-21 01:44:00,
2013-08-20 20:49:00,84.9,69.5,29.92,SE,141,0.0,0.0,60,0.00,,---,0.00,VWS V14.01,2013-08-21 01:49:00,
2013-08-20 20:54:00,84.6,68.2,29.92,SE,141,0.0,0.0,58,0.00,,---,0.00,VWS V14.01,2013-08-21 01:54:00,
2013-08-20 20:59:00,84.4,68.5,29.92,SE,141,0.0,0.0,59,0.00,,---,0.00,VWS V14.01,2013-08-21 01:59:00,
2013-08-20 21:04:00,84.1,67.2,29.92,SE,141,0.0,0.0,57,0.00,,---,0.00,VWS V14.01,2013-08-21 02:04:00,
2013-08-20 21:09:00,83.8,67.0,29.93,SE,143,0.0,0.0,57,0.00,,---,0.00,VWS V14.01,2013-08-21 02:09:00,
2013-08-20 21:14:00,83.6,67.3,29.93,SE,143,0.0,0.0,58,0.00,,---,0.00,VWS V14.01,2013-08-21 02:14:00,
2013-08-20 21:19:00,83.5,69.1,29.93,SE,143,0.0,0.0,62,0.00,,---,0.00,VWS V14.01,2013-08-21 02:19:00,
2013-08-20 21:24:00,83.5,68.7,29.93,SE,142,0.0,0.0,61,0.00,,---,0.00,VWS V14.01,2013-08-21 02:24:00,
2013-08-20 21:29:00,83.3,69.4,29.94,SE,143,1.0,1.0,63,0.00,,---,0.00,VWS V14.01,2013-08-21 02:29:00,
2013-08-20 21:34:00,83.3,71.2,29.94,SE,139,0.0,1.0,67,0.00,,---,0.00,VWS V14.01,2013-08-21 02:34:00,
2013-08-20 21:39:00,83.0,70.5,29.94,SE,139,0.0,1.0,66,0.00,,---,0.00,VWS V14.01,2013-08-21 02:39:00,
2013-08-20 21:44:00,82.7,68.4,29.94,SSE,156,0.0,1.0,62,0.00,,---,0.00,VWS V14.01,2013-08-21 02:44:00,
2013-08-20 21:49:00,82.5,68.2,29.94,SSE,156,0.0,1.0,62,0.00,,---,0.00,VWS V14.01,2013-08-21 02:49:00,
2013-08-20 21:54:00,82.2,66.5,29.94,SSE,156,0.0,1.0,59,0.00,,---,0.00,VWS V14.01,2013-08-21 02:54:00,
2013-08-20 21:59:00,82.0,66.8,29.94,SSE,159,0.0,1.0,60,0.00,,---,0.00,VWS V14.01,2013-08-21 02:59:00,
2013-08-20 22:04:00,81.8,66.6,29.94,SSE,159,0.0,0.0,60,0.00,,---,0.00,VWS V14.01,2013-08-21 03:04:00,
2013-08-20 22:09:00,81.6,66.4,29.94,SSE,159,0.0,0.0,60,0.00,,---,0.00,VWS V14.01,2013-08-21 03:09:00,
2013-08-20 22:14:00,81.3,66.6,29.95,SSE,159,0.0,0.0,61,0.00,,---,0.00,VWS V14.01,2013-08-21 03:14:00,
2013-08-20 22:19:00,81.0,66.3,29.95,SSE,159,0.0,0.0,61,0.00,,---,0.00,VWS V14.01,2013-08-21 03:19:00,
2013-08-20 22:24:00,80.7,66.5,29.95,SSE,159,0.0,0.0,62,0.00,,---,0.00,VWS V14.01,2013-08-21 03:24:00,
2013-08-20 22:29:00,80.6,66.4,29.95,SSE,159,0.0,0.0,62,0.00,,---,0.00,VWS V14.01,2013-08-21 03:29:00,
2013-08-20 22:34:00,80.5,67.2,29.95,SSE,159,0.0,0.0,64,0.00,,---,0.00,VWS V14.01,2013-08-21 03:34:00,
2013-08-20 22:39:00,80.3,67.9,29.95,SSE,160,0.0,0.0,66,0.00,,---,0.00,VWS V14.01,2013-08-21 03:39:00,
2013-08-20 22:44:00,80.1,67.3,29.95,SSE,160,0.0,0.0,65,0.00,,---,0.00,VWS V14.01,2013-08-21 03:44:00,
2013-08-20 22:49:00,79.9,67.5,29.96,SSE,156,0.0,2.0,66,0.00,,---,0.00,VWS V14.01,2013-08-21 03:49:00,
2013-08-20 22:54:00,80.2,67.4,29.96,SSE,153,1.0,2.0,65,0.00,,---,0.00,VWS V14.01,2013-08-21 03:54:00,
2013-08-20 22:59:00,80.8,68.4,29.96,SSE,156,1.0,2.0,66,0.00,,---,0.00,VWS V14.01,2013-08-21 03:59:00,
2013-08-20 23:01:00,81.0,67.2,29.96,SSE,153,2.0,3.0,63,0.00,,---,0.00,VWS V14.01,2013-08-21 04:01:00,
2013-08-20 23:06:00,81.6,66.4,29.96,SSE,165,0.0,3.0,60,0.00,,---,0.00,VWS V14.01,2013-08-21 04:06:00,
2013-08-20 23:11:00,81.8,67.1,29.96,SE,132,3.0,3.0,61,0.00,,---,0.00,VWS V14.01,2013-08-21 04:11:00,
2013-08-20 23:16:00,81.9,67.1,29.96,ESE,118,3.0,3.0,61,0.00,,---,0.00,VWS V14.01,2013-08-21 04:16:00,
2013-08-20 23:21:00,81.9,66.2,29.96,ESE,121,2.0,5.0,59,0.00,,---,0.00,VWS V14.01,2013-08-21 04:21:00,
2013-08-20 23:26:00,82.1,66.8,29.96,East,89,2.0,5.0,60,0.00,,---,0.00,VWS V14.01,2013-08-21 04:26:00,
2013-08-20 23:31:00,82.1,66.8,29.96,SE,129,3.0,5.0,60,0.00,,---,0.00,VWS V14.01,2013-08-21 04:31:00,
2013-08-20 23:36:00,82.0,66.8,29.96,NW,309,0.0,4.0,60,0.00,,---,0.00,VWS V14.01,2013-08-21 04:36:00,
2013-08-20 23:41:00,81.9,66.7,29.97,ENE,78,3.0,5.0,60,0.00,,---,0.00,VWS V14.01,2013-08-21 04:41:00,
2013-08-20 23:46:00,81.8,67.1,29.97,WNW,298,1.0,5.0,61,0.00,,---,0.00,VWS V14.01,2013-08-21 04:46:00,
2013-08-20 23:51:00,81.7,66.5,29.97,ENE,60,1.0,5.0,60,0.00,,---,0.00,VWS V14.01,2013-08-21 04:51:00,
2013-08-20 23:56:00,81.6,66.4,29.97,NE,39,1.0,5.0,60,0.00,,---,0.00,VWS V14.01,2013-08-21 04:56:00,